Location: Alpino
(32.5215°N, 116.5815°W)
Time: 05:01:48
(UTC+00:00)

Cosmos 468 - Pass Details

Date: 13 April 2024
Orbit: 761 x 781 km, 74.0° (Epoch: 28 May)

Event Time Altitude Azimuth Distance (km) Brightness Sun altitude
Rises 12:33:48 0° 200° (SSW) 3,242 7.4 -10.0°
Reaches altitude 10° 12:36:11 10° 202° (SSW) 2,316 6.6 -9.5°
Maximum altitude 12:41:26 74° 287° (WNW) 805 4.5 -8.4°
Drops below altitude 10° 12:46:42 10° 13° (NNE) 2,316 7.4 -7.4°
Sets 12:49:05 0° 15° (NNE) 3,242 8.2 -6.9°
